Location: Heidgraben
(53.7081°N, 9.6576°E)
Time: 07:48:31
(UTC+00:00)

Cosmos 2360 Rocket - Pass Details

Date: 05 July 2020
Orbit: 832 x 846 km, 71.0° (Epoch: 15 August)

Event Time Altitude Azimuth Distance (km) Brightness Sun altitude
Rises 22:18:50 0° 251° (WSW) 3,390 5.3 -12.2°
Reaches altitude 10° 22:21:35 10° 262° (W) 2,461 4.7 -12.4°
Maximum altitude 22:26:29 29° 322° (NW) 1,495 4.3 -12.5°
Drops below altitude 10° 22:31:25 10° 23° (NNE) 2,478 5.5 -12.7°
Sets 22:34:13 0° 34° (NE) 3,418 6.1 -12.8°
